Cork, Ireland

9:14 AM GMT on January 22, 2018 (GMT +0000)
Cork

Weather History for EICK - August, 2012

Change the Weather History Date:

Wednesday, August 8, 2012

  Actual Average Record
Temperature  
Mean Temperature 64 °F -  
Max Temperature 69 °F 64 °F 73 °F (1997)
Min Temperature 58 °F 51 °F 45 °F (2015)
Degree Days  
Heating Degree Days 2    
Growing Degree Days 14 (Base 50)    
Moisture  
Dew Point 61 °F    
Average Humidity 97    
Maximum Humidity 100    
Minimum Humidity 78    
Precipitation  
Precipitation 0.02 in 0.12 in - ()
Sea Level Pressure  
Sea Level Pressure 30.20 in    
Wind  
Wind Speed 4 mph ()    
Max Wind Speed 11 mph    
Max Gust Speed -    
Visibility 3.4 miles    
Events Fog , Rain    
Averages and records for this station are not official NWS values.
T = Trace of Precipitation, MM = Missing Value Source: Averaged Metar Reports

Daily Weather History Graph

Daily Weather History Graph

Search for Another Location

Airport or City:

Trip Planner

Search our weather history database for the weather conditions in past years. The results will help you decide how hot, cold, wet, or windy it might be!

Date:

Astronomy

Aug. 08, 2012 Rise Set
Actual Time 6:07 AM IST 9:10 PM IST
Civil Twilight 5:28 AM IST 9:49 PM IST
Nautical Twilight 4:36 AM IST 10:40 PM IST
Astronomical Twilight 3:29 AM IST 11:46 PM IST
Moon 11:15 PM IST (8/8) 1:39 PM IST (8/8)
Length of Visible Light 16h 21m
Length of Day
15h 02m
Waning Gibbous, 63% of the Moon is Illuminated
Aug 8
Waning Gibbous
Aug 9
Last Quarter
Aug 17
New
Aug 24
First Quarter
Aug 31
Full

Hourly Weather History & Observations

Time (IST) Temp. Dew Point Humidity Pressure Visibility Wind Dir Wind Speed Gust Speed Precip Events Conditions
12:00 AM 59.0 °F 59.0 °F 100% 30.12 in 6.2 mi SW 2.3 mph - N/A   Mostly Cloudy
12:30 AM 59.0 °F 59.0 °F 100% 30.12 in 6.2 mi South 2.3 mph - N/A   Mostly Cloudy
1:00 AM 58 °F 58 °F 100% 30.15 in 10 mi SSW 11.2 mph - -   Partly Cloudy
1:00 AM 59.0 °F 59.0 °F 100% 30.12 in 6.2 mi SSW 2.3 mph - N/A   Mostly Cloudy
1:30 AM 59.0 °F 59.0 °F 100% 30.15 in 6.2 mi SSW 1.2 mph - N/A   Mostly Cloudy
2:00 AM 59.0 °F 59.0 °F 100% 30.15 in 4.3 mi South 1.2 mph - N/A   Mostly Cloudy
2:30 AM 59.0 °F 59.0 °F 100% 30.15 in 0.5 mi South 1.2 mph - N/A Fog Fog
3:00 AM 59.0 °F 59.0 °F 100% 30.33 in 0.5 mi SE 1.2 mph - N/A Fog Fog
3:30 AM 59.0 °F 59.0 °F 100% 30.33 in 1.2 mi SSW 1.2 mph - N/A   Mostly Cloudy
4:00 AM 59.0 °F 59.0 °F 100% 30.15 in 1.2 mi South 1.2 mph - N/A   Mostly Cloudy
4:30 AM 59.0 °F 59.0 °F 100% 30.15 in 0.4 mi SE 1.2 mph - N/A Fog Fog
5:00 AM 59.0 °F 59.0 °F 100% 30.15 in 0.4 mi Calm Calm - N/A Fog Fog
5:30 AM 59.0 °F 59.0 °F 100% 30.15 in 0.4 mi SE 3.5 mph - N/A Fog Fog
6:00 AM 59.0 °F 59.0 °F 100% 30.15 in 0.2 mi ESE 3.5 mph - N/A Fog Fog
6:30 AM 59.0 °F 59.0 °F 100% 30.15 in 0.2 mi East 3.5 mph - N/A Fog Fog
7:00 AM 59 °F 59 °F 100% 30.17 in 0 mi East 4.5 mph - - Fog Partial Fog
7:00 AM 59.0 °F 59.0 °F 100% 30.15 in 0.3 mi East 3.5 mph - N/A Fog Fog
7:30 AM 59.0 °F 59.0 °F 100% 30.15 in 0.2 mi ESE 4.6 mph - N/A Fog Fog
8:00 AM 59.0 °F 59.0 °F 100% 30.18 in 0.2 mi SE 4.6 mph - N/A Fog Fog
8:30 AM 59.0 °F 59.0 °F 100% 30.18 in 0.1 mi SSE 2.3 mph - N/A Fog Fog
9:00 AM 60.8 °F 60.8 °F 100% 30.18 in 0.2 mi Variable 2.3 mph - N/A Fog Fog
9:30 AM 60.8 °F 60.8 °F 100% 30.18 in 0.1 mi Variable 3.5 mph - N/A Fog Fog
10:00 AM 60.8 °F 60.8 °F 100% 30.21 in 0.2 mi Variable 2.3 mph - N/A Fog Fog
10:30 AM 60.8 °F 60.8 °F 100% 30.21 in 1.0 mi Variable 1.2 mph - N/A   Mostly Cloudy
11:00 AM 62.6 °F 62.6 °F 100% 30.21 in 6.2 mi Variable 2.3 mph - N/A   Mostly Cloudy
11:30 AM 62.6 °F 62.6 °F 100% 30.21 in 6.2 mi West 3.5 mph - N/A   Mostly Cloudy
12:00 PM 64.4 °F 64.4 °F 100% 30.21 in 6.2 mi WNW 4.6 mph - N/A   Mostly Cloudy
12:30 PM 66.2 °F 64.4 °F 94% 30.21 in 6.2 mi WNW 4.6 mph - N/A   Mostly Cloudy
1:00 PM 66 °F 63 °F 87% 30.23 in 31 mi NNW 4.5 mph - -   Partly Cloudy
1:00 PM 66.2 °F 62.6 °F 88% 30.21 in 6.2 mi NNW 3.5 mph - N/A   Mostly Cloudy
1:30 PM 68.0 °F 62.6 °F 83% 30.21 in 6.2 mi NW 3.5 mph - N/A   Mostly Cloudy
2:00 PM 69.8 °F 62.6 °F 78% 30.21 in 6.2 mi West 1.2 mph - N/A   Mostly Cloudy
2:30 PM 68.0 °F 62.6 °F 83% 30.21 in 6.2 mi Variable 2.3 mph - N/A   Mostly Cloudy
3:00 PM 68.0 °F 62.6 °F 83% 30.21 in 6.2 mi Variable 3.5 mph - N/A   Mostly Cloudy
3:30 PM 68.0 °F 64.4 °F 88% 30.21 in 6.2 mi SSE 6.9 mph - N/A   Mostly Cloudy
4:00 PM 68.0 °F 64.4 °F 88% 30.21 in 6.2 mi SSE 6.9 mph - N/A   Mostly Cloudy
4:30 PM 66.2 °F 64.4 °F 94% 30.21 in 6.2 mi SSE 6.9 mph - N/A   Mostly Cloudy
5:00 PM 68.0 °F 64.4 °F 88% 30.21 in 6.2 mi ESE 8.1 mph - N/A   Mostly Cloudy
5:30 PM 66.2 °F 62.6 °F 88% 30.21 in 6.2 mi ESE 9.2 mph - N/A   Mostly Cloudy
6:00 PM 66.2 °F 64.4 °F 94% 30.21 in 6.2 mi ESE 9.2 mph - N/A   Mostly Cloudy
6:30 PM 64.4 °F 62.6 °F 94% 30.21 in 6.2 mi ESE 8.1 mph - N/A   Mostly Cloudy
7:00 PM 63 °F 62 °F 95% 30.24 in 16 mi ESE 8.9 mph - -   Mostly Cloudy
7:00 PM 62.6 °F 62.6 °F 100% 30.24 in 6.2 mi ESE 8.1 mph - N/A   Mostly Cloudy
7:30 PM 62.6 °F 60.8 °F 94% 30.24 in 3.1 mi ESE 8.1 mph - N/A   Mostly Cloudy
8:00 PM 60.8 °F 60.8 °F 100% 30.24 in 0.2 mi ESE 6.9 mph - N/A Fog Light Drizzle
8:30 PM 60.8 °F 60.8 °F 100% 30.24 in 0.2 mi ESE 6.9 mph - N/A Fog Light Drizzle
9:00 PM 60.8 °F 60.8 °F 100% 30.24 in 0.2 mi ESE 6.9 mph - N/A Fog Light Drizzle
9:30 PM 60.8 °F 60.8 °F 100% 30.27 in 0.2 mi East 5.8 mph - N/A Fog Light Drizzle
10:00 PM 60.8 °F 60.8 °F 100% 30.27 in 0.2 mi SE 4.6 mph - N/A Fog , Rain Light Rain
10:30 PM 60.8 °F 60.8 °F 100% 30.27 in 0.2 mi SE 4.6 mph - N/A Fog Light Drizzle
11:00 PM 60.8 °F 60.8 °F 100% 30.27 in 0.2 mi SE 6.9 mph - N/A Fog Fog
11:30 PM 60.8 °F 60.8 °F 100% 30.27 in - East 4.6 mph - N/A Fog Fog